Theta_e
321 320 322 323 319 318 317 316 315 316 323 325 317 315 322 319 310 320 328 325 337 340 334 357 371 373 370 360 359 359 350 348 349 350 353 354 353 352 351 351 351 352 352 351 348 344 342 342 341 339 337 336 335 333 333 333 332 332 332 332 331 329 326
320 318 321 323 321 321 318 314 316 319 318 325 321 313 319 318 311 324 331 330 339 331 325 353 374 377 376 363 358 355 350 350 349 350 353 353 354 352 350 351 350 352 352 348 345 342 341 342 340 338 336 335 334 333 333 332 331 331 331 330 328 326 325
320 322 320 318 319 321 320 318 321 319 314 317 315 312 315 314 314 324 330 335 340 333 336 353 362 381 382 360 354 354 351 352 350 351 354 353 354 352 350 352 351 351 351 346 343 341 340 340 339 337 335 334 333 332 332 332 329 329 328 327 326 324 324
318 324 322 315 315 319 320 320 320 320 320 318 314 313 313 313 316 323 326 330 336 343 356 356 353 378 376 355 355 356 352 353 350 350 354 353 353 353 351 352 351 351 349 344 341 339 339 339 337 335 335 333 332 330 330 329 327 326 325 325 324 323 323
316 319 323 317 318 319 316 316 316 316 318 318 315 313 313 314 320 325 323 322 333 353 362 358 360 373 365 353 356 356 351 352 350 349 352 353 353 352 351 351 350 349 347 342 340 338 338 338 335 334 333 331 330 329 328 328 326 325 324 323 324 324 323
313 318 325 323 324 324 320 318 316 315 317 315 312 313 316 315 316 326 325 316 329 355 356 357 368 368 359 353 354 354 352 350 349 350 352 352 353 352 350 350 349 347 344 340 339 338 336 336 334 332 332 330 328 328 327 327 326 325 324 323 323 324 322
319 321 323 321 320 322 324 320 320 322 322 316 310 312 318 315 316 330 330 317 329 355 354 358 366 362 356 353 352 352 350 349 350 350 351 352 352 351 349 349 347 345 342 339 338 337 335 335 333 331 330 328 326 327 327 326 325 325 324 323 323 322 320
351 340 333 328 322 324 323 321 324 321 319 320 317 319 325 322 322 331 327 320 334 353 357 360 359 356 357 353 352 352 349 351 351 349 352 353 351 351 349 347 346 342 340 339 337 336 335 333 332 331 328 326 325 325 325 326 326 325 324 322 321 319 317
336 333 335 332 328 332 327 325 330 325 322 326 323 327 332 324 323 329 323 324 340 352 357 361 357 355 357 352 351 352 351 352 352 350 352 352 350 351 349 346 343 340 339 338 336 335 334 333 331 329 326 325 324 324 324 325 325 324 323 321 319 317 316
318 321 326 325 327 334 330 331 341 336 328 327 323 325 326 320 323 331 328 329 346 363 363 362 359 357 356 355 352 350 352 352 351 352 351 350 350 349 348 345 341 339 339 338 337 335 334 333 331 328 326 325 324 323 322 323 323 322 321 319 318 317 316
324 336 344 338 335 332 326 332 343 339 336 339 334 325 322 325 330 336 345 346 348 365 371 364 362 359 357 357 353 351 353 353 351 352 350 350 350 347 347 344 340 340 340 338 337 335 334 333 330 327 326 325 324 323 322 321 322 321 320 319 318 316 315
329 346 348 340 338 334 330 334 338 339 346 352 343 325 323 335 331 330 354 363 349 359 373 367 364 362 357 356 354 352 354 353 352 352 350 349 349 346 346 343 340 341 339 337 337 335 334 333 329 327 326 324 324 323 322 321 322 322 321 319 317 316 315
332 338 334 337 345 343 343 347 346 349 355 354 346 338 338 341 331 325 345 363 362 369 372 365 362 361 358 357 354 352 353 353 352 351 351 350 349 347 345 342 341 340 338 338 337 335 334 332 329 327 326 324 324 323 322 321 321 321 320 319 317 315 315
331 335 341 348 348 346 348 351 353 360 367 367 363 362 358 349 346 351 356 363 374 377 368 365 363 359 358 357 354 352 353 353 353 351 351 351 348 348 346 343 341 339 338 338 336 335 335 332 329 327 325 325 324 323 322 320 319 319 319 318 317 316 316
323 333 350 350 348 351 349 346 354 361 362 362 362 367 367 357 359 369 364 361 373 373 364 366 364 358 359 358 353 355 353 352 353 351 351 350 347 347 345 343 342 339 338 338 336 335 335 332 329 327 325 325 324 323 322 321 320 319 318 318 318 317 317
318 328 340 340 346 350 342 340 348 352 349 346 347 356 362 360 364 366 351 348 369 374 363 364 364 358 359 358 355 355 353 352 352 351 350 349 347 346 345 343 342 340 338 337 337 336 334 333 330 327 325 325 323 322 322 320 320 319 318 318 318 317 317
319 325 336 342 347 339 334 339 341 343 353 353 348 354 359 361 368 367 354 353 371 373 363 363 365 360 358 359 357 354 353 352 351 351 351 349 347 346 344 342 342 340 339 337 336 336 335 333 331 327 326 324 323 322 321 319 319 319 318 318 318 317 317
318 325 342 345 336 329 335 349 344 341 350 353 351 355 359 361 364 365 366 367 366 362 363 365 364 361 360 359 356 354 353 352 351 351 350 349 347 346 344 342 341 340 339 337 337 336 335 333 331 328 326 324 324 323 322 320 319 319 318 318 317 317 317
324 335 347 334 328 339 353 355 347 342 345 351 358 361 364 371 369 365 372 375 365 359 362 361 359 360 359 357 356 355 353 351 351 351 350 349 348 345 344 342 341 340 339 338 337 336 335 333 331 327 325 324 324 324 322 320 320 319 318 317 316 316 316
326 333 337 329 334 351 355 346 343 343 346 349 351 346 352 367 372 372 378 374 363 360 361 359 360 359 357 358 357 355 353 352 351 350 350 349 346 344 344 342 340 340 339 338 337 336 335 333 330 328 326 325 325 324 322 320 320 319 318 316 316 316 316
333 334 332 334 336 336 338 343 344 341 343 346 342 339 349 365 370 375 382 372 360 362 362 360 360 357 357 360 357 354 354 352 350 349 348 347 346 344 343 342 340 340 339 338 337 336 334 333 330 328 326 325 324 323 321 320 319 318 317 316 316 316 316
338 341 335 333 330 330 339 351 348 340 342 350 349 344 352 368 369 369 379 373 363 365 362 357 357 359 364 370 364 355 353 352 351 350 347 345 345 343 341 341 341 339 339 337 336 336 335 332 330 328 327 326 324 322 321 320 320 318 317 317 317 317 317
333 341 338 333 332 338 349 351 345 341 343 351 352 342 345 363 368 364 374 375 365 364 361 357 359 365 376 385 373 357 353 352 351 350 348 345 343 340 338 339 339 339 338 337 336 335 334 331 329 327 326 325 324 322 321 321 320 319 319 318 318 318 318
335 340 337 333 336 340 347 352 352 347 343 342 339 334 341 358 362 358 372 379 368 360 357 356 361 369 379 385 373 357 352 351 349 348 348 345 342 339 339 339 338 338 338 336 335 335 333 331 329 327 326 325 324 323 322 321 321 321 320 319 319 319 319
345 342 330 329 339 346 351 361 360 349 339 334 334 338 346 358 359 356 368 375 365 356 355 360 366 367 365 364 360 353 351 351 350 347 345 343 340 339 339 339 338 338 338 336 335 334 332 330 328 326 326 325 324 323 322 322 322 322 321 320 320 320 320
341 348 339 329 335 345 350 355 354 343 334 334 343 348 350 357 363 360 360 363 360 355 355 360 363 362 359 356 353 351 351 352 350 345 341 339 339 339 338 338 338 338 337 336 333 332 331 328 326 326 326 325 324 323 322 322 323 322 321 320 320 319 319
339 347 339 326 327 338 344 341 345 345 338 343 361 363 353 357 367 363 358 358 357 355 355 356 359 361 360 357 354 352 352 352 347 341 339 339 339 339 338 338 337 337 337 335 333 331 329 327 326 327 326 325 324 322 322 323 323 322 321 320 320 319 318
343 338 336 335 341 349 348 342 344 349 344 350 368 372 362 364 365 360 362 361 354 353 356 356 358 361 358 355 355 354 353 350 343 339 339 339 339 339 339 338 338 337 336 335 332 330 328 326 326 326 325 325 324 322 324 324 323 321 321 320 319 319 318
352 350 352 358 358 355 351 347 348 353 353 354 362 367 370 372 365 359 363 364 355 352 355 355 359 359 355 352 352 352 351 347 341 339 339 338 338 339 338 338 337 336 336 334 331 329 328 326 326 325 325 325 323 323 325 325 322 321 320 320 319 319 319
347 349 353 356 354 354 357 355 350 353 358 359 358 359 362 369 366 358 359 361 356 351 353 357 358 355 351 351 350 348 347 344 340 338 338 338 338 338 338 338 337 336 335 333 330 329 327 325 325 325 325 326 326 326 326 325 322 321 321 320 320 320 320
345 348 352 355 354 354 359 361 357 355 358 360 359 357 358 361 360 356 354 355 352 350 352 356 356 350 348 349 348 345 344 343 340 339 338 338 338 338 338 338 337 335 333 331 330 329 327 325 325 325 325 326 327 327 327 324 322 322 322 320 320 320 320
351 352 354 357 356 356 358 362 361 359 359 361 359 357 356 356 354 352 351 350 350 350 351 352 352 348 346 346 346 344 343 342 340 339 338 338 339 338 338 338 337 334 332 331 330 329 327 326 325 325 326 327 327 328 327 325 323 323 322 321 321 321 320
357 353 353 353 353 357 361 362 360 357 358 361 360 355 352 353 352 349 348 347 346 347 348 347 349 349 346 344 344 343 342 341 340 339 339 339 339 338 338 337 336 334 333 331 330 329 328 327 326 326 327 327 328 328 328 325 324 323 322 321 321 321 321
361 363 364 359 358 365 368 363 359 357 355 359 362 359 356 356 353 350 348 345 343 343 342 343 347 350 346 343 342 341 341 340 339 339 339 338 338 338 337 336 335 334 332 331 330 329 329 328 328 328 328 328 328 328 328 326 324 323 322 322 321 321 322
365 367 367 363 366 371 366 360 359 357 355 359 364 362 359 356 350 348 348 348 347 345 340 339 344 347 344 341 341 341 340 338 338 338 339 338 337 337 336 335 334 333 333 332 331 330 330 329 329 330 330 330 330 329 328 326 324 322 322 321 322 322 322
357 358 359 356 359 358 354 358 363 358 353 357 360 357 356 354 348 344 346 350 349 346 342 339 340 341 340 339 340 339 338 338 338 338 338 338 337 337 336 335 334 333 333 333 332 332 331 330 330 330 331 331 331 329 328 325 323 322 322 321 321 321 321
348 357 355 353 360 363 358 357 359 355 352 355 357 355 353 350 345 343 346 349 345 342 342 341 338 338 338 338 338 338 337 336 337 338 338 338 337 336 336 335 334 334 334 334 333 332 331 331 331 331 331 331 331 329 327 324 323 322 322 321 321 321 320
Wind_Speed
5 7 5 6 5 3 1 2 4 4 4 7 3 1 0 2 1 2 1 3 5 4 4 5 5 6 7 6 5 7 8 10 10 9 9 10 11 11 10 10 10 12 17 19 23 27 25 21 20 21 24 26 24 24 26 25 24 23 23 23 23 23 24
6 2 5 2 2 5 5 3 5 3 2 4 3 1 3 3 1 4 1 3 5 3 3 5 5 5 5 6 4 6 7 8 9 8 8 10 11 11 11 11 11 13 16 19 24 27 25 22 22 23 25 25 24 25 26 24 23 24 24 24 24 24 23
5 3 5 2 4 1 4 5 3 3 2 0 1 2 1 0 1 4 4 3 3 3 4 4 3 1 0 3 3 5 7 8 8 8 10 12 12 11 10 11 10 11 16 20 24 27 27 25 23 24 26 25 25 25 24 23 24 25 26 25 25 24 22
3 3 3 1 3 2 2 3 2 2 3 4 2 2 3 2 2 2 4 4 3 6 5 3 4 5 5 4 3 5 6 8 8 10 12 12 11 10 9 10 9 10 15 21 27 31 28 24 22 25 26 25 24 24 23 24 24 25 25 25 25 23 20
3 1 1 3 5 3 2 3 1 1 1 2 2 1 2 3 3 2 2 3 5 6 4 4 5 5 7 8 7 6 6 7 8 10 12 11 10 9 9 10 9 10 15 21 27 30 27 25 24 24 24 25 25 25 25 25 25 25 25 24 24 21 19
3 5 6 4 7 6 5 5 4 4 3 3 2 2 3 1 3 4 3 3 7 5 3 5 6 4 7 8 9 8 7 8 9 9 10 10 9 9 10 11 9 10 15 20 23 24 24 25 25 24 25 25 25 26 26 26 26 26 25 24 23 20 18
5 9 7 4 7 6 5 4 3 4 4 5 5 4 4 1 2 1 3 1 6 5 3 5 5 4 6 6 7 9 8 9 10 10 10 9 10 10 10 10 9 12 17 20 21 22 22 23 23 24 25 25 26 26 27 27 27 27 25 24 22 19 19
5 8 6 1 4 4 4 1 1 3 3 3 5 5 3 4 3 2 2 2 6 5 4 3 0 4 6 5 6 9 10 8 10 11 10 9 10 10 11 10 10 14 17 19 20 21 21 21 22 23 23 25 26 26 26 27 28 26 25 23 21 20 20
5 6 7 5 3 3 2 1 3 0 4 5 4 2 3 2 4 5 4 3 6 4 3 4 4 6 7 7 6 7 9 9 10 10 9 8 9 10 11 11 11 13 15 16 18 19 20 21 22 23 24 25 26 25 25 27 27 25 24 23 22 21 20
1 1 2 2 2 2 1 1 3 3 3 7 5 3 4 1 3 4 4 5 6 4 3 5 4 5 7 8 7 6 6 8 9 9 9 8 8 10 12 11 12 12 13 15 18 19 20 22 22 23 24 25 25 24 24 26 26 26 25 24 23 22 20
6 6 7 5 3 1 2 3 4 3 2 6 5 4 2 4 4 1 5 6 4 5 2 4 3 5 6 6 8 7 6 8 8 9 9 8 8 9 10 10 11 11 11 14 18 20 21 22 24 25 25 24 24 24 23 24 25 26 25 25 24 23 21
6 4 4 3 2 3 1 1 3 2 2 5 5 3 3 5 5 2 6 5 3 5 3 6 5 6 7 7 8 7 7 8 9 9 10 10 10 9 9 9 10 11 11 12 16 19 21 22 24 25 24 24 25 25 24 24 25 25 26 26 25 24 22
3 3 4 2 3 2 1 2 2 3 3 4 5 3 3 5 5 4 5 5 5 6 4 7 8 7 7 7 7 7 7 8 9 10 11 11 11 10 10 10 11 11 10 11 15 19 20 22 23 23 23 23 24 24 25 25 25 25 26 27 26 25 23
7 7 5 4 3 2 3 5 4 2 4 5 5 3 2 3 2 3 2 4 6 6 5 7 7 6 5 5 7 8 9 9 10 10 10 10 11 11 11 11 11 11 11 12 16 19 20 21 23 23 24 25 25 25 26 27 27 26 27 27 26 26 25
6 7 6 7 4 2 4 5 5 5 6 5 4 3 2 1 2 2 2 2 5 5 3 4 6 7 6 7 9 9 9 9 10 10 10 10 11 11 11 11 11 11 12 14 17 20 21 23 23 24 26 27 27 27 27 28 29 29 28 27 27 27 27
2 4 5 5 5 6 6 5 6 5 4 2 1 1 2 3 2 1 3 1 5 4 3 5 7 8 9 9 10 9 9 10 11 11 11 10 11 12 11 11 11 12 12 14 18 20 22 24 25 26 28 28 28 28 29 30 31 30 29 27 27 28 28
2 4 3 3 6 7 4 4 3 3 3 2 2 2 1 3 4 4 2 4 4 3 6 8 8 9 10 10 10 9 10 12 12 11 11 11 11 12 11 11 12 13 14 17 21 23 25 27 28 30 32 31 30 32 32 31 32 32 30 28 28 29 29
2 3 4 5 5 3 4 6 5 5 4 2 2 3 3 3 2 3 3 4 3 6 9 9 9 10 9 8 9 8 9 10 11 11 11 10 11 10 11 12 12 13 16 20 24 26 28 29 30 31 32 32 33 34 32 32 32 32 30 28 28 28 29
3 1 6 5 1 5 7 6 3 5 6 5 5 4 5 5 4 2 2 3 3 7 7 5 5 5 4 5 6 8 8 9 10 11 11 11 11 11 11 11 12 14 18 21 22 24 26 28 29 29 29 30 33 34 32 32 33 32 30 28 28 28 29
3 2 4 2 5 7 6 6 4 2 3 3 3 2 6 6 6 5 4 3 4 5 3 2 4 3 4 3 3 5 7 8 9 10 12 12 12 11 12 14 15 19 22 24 25 25 25 27 29 30 31 33 34 33 31 31 32 31 30 29 28 28 29
3 3 2 2 3 3 3 4 3 2 2 3 4 1 6 6 5 5 5 4 4 4 3 4 5 5 4 2 2 4 7 8 9 10 10 13 14 15 17 20 22 25 26 26 27 28 27 28 29 31 33 34 32 30 28 28 28 28 27 27 28 28 28
2 5 2 2 2 2 6 6 4 2 3 5 7 3 4 6 5 6 7 7 6 5 5 5 6 5 3 1 4 6 7 8 9 8 9 12 13 11 10 13 16 20 23 24 25 27 28 27 28 31 33 33 30 28 26 27 27 28 28 28 28 28 27
2 5 3 2 3 4 6 7 6 3 3 6 6 5 4 6 5 6 7 7 7 6 6 7 6 5 2 4 5 6 9 10 10 9 8 8 9 10 8 11 13 15 19 22 23 25 27 27 28 30 32 32 31 29 28 29 30 30 29 28 28 27 26
2 4 3 2 4 3 3 5 6 3 4 7 7 3 5 6 4 6 7 8 8 6 6 6 5 4 4 5 5 5 10 11 9 10 9 9 14 16 15 17 17 16 18 21 23 24 26 28 29 31 33 32 31 29 30 31 31 30 30 29 28 27 26
3 4 3 2 3 4 4 5 5 2 4 5 4 3 6 4 4 5 6 7 7 7 8 6 4 3 3 3 4 4 8 8 7 7 9 11 13 13 11 12 14 15 17 20 22 23 25 27 29 32 34 32 30 29 30 31 31 31 29 28 27 26 26
2 3 3 1 3 4 3 2 2 2 4 2 4 6 4 3 4 4 3 5 6 7 8 7 3 1 1 2 0 4 7 7 6 10 17 18 15 12 11 11 14 15 14 15 18 20 23 26 30 33 33 30 28 28 29 30 30 29 28 27 26 24 24
2 2 3 1 3 4 1 2 1 1 2 4 5 3 1 1 4 4 3 4 5 6 7 5 3 3 2 3 3 4 5 6 10 16 18 16 14 15 16 15 16 17 14 12 15 19 22 26 29 31 31 28 26 27 28 29 28 27 27 26 24 23 23
3 3 1 3 4 5 2 1 2 3 2 3 4 3 1 1 2 4 3 4 5 6 6 4 4 3 3 3 4 4 6 8 12 15 16 17 16 16 18 18 18 18 17 15 16 19 23 26 27 29 29 26 25 26 27 26 26 26 26 25 23 23 22
3 4 5 5 4 4 3 2 4 5 3 1 4 4 1 2 3 3 3 4 5 5 5 5 4 3 2 3 3 4 6 8 10 13 15 16 16 16 17 19 18 18 20 20 19 20 22 24 26 27 28 27 26 26 26 25 25 26 26 25 24 23 21
2 2 2 2 2 3 3 2 3 3 3 1 2 3 1 2 3 3 3 4 4 5 6 5 4 3 3 4 4 4 6 7 9 12 15 16 17 17 16 17 18 18 20 22 22 21 22 23 25 25 27 28 27 26 25 25 26 26 26 25 25 23 20
2 0 2 2 2 2 3 3 3 2 2 2 1 2 2 2 3 3 3 4 5 5 5 6 6 5 5 6 5 4 6 8 8 10 13 15 16 16 16 18 20 21 21 21 22 22 22 23 23 23 23 25 25 24 24 26 26 25 25 25 25 23 21
2 3 5 5 3 4 4 2 2 1 1 3 3 1 1 2 4 3 3 4 5 4 4 6 7 6 5 6 7 5 5 6 7 9 13 15 16 16 18 20 22 23 22 21 21 21 20 22 23 23 24 24 22 21 23 25 25 23 24 25 25 23 21
1 3 4 3 3 4 5 3 2 2 2 1 2 4 4 5 6 5 5 5 4 4 5 6 7 7 5 5 7 7 6 6 7 9 13 15 16 17 19 21 22 23 22 22 21 20 21 23 25 25 25 23 21 21 23 24 24 24 24 25 23 22 20
1 4 4 3 2 1 4 4 2 2 2 2 4 4 4 4 5 6 6 6 5 5 6 6 7 7 5 5 6 7 6 6 9 12 15 15 16 17 18 19 20 20 19 20 21 21 22 24 25 24 24 22 21 21 22 22 24 25 24 23 22 20 20
4 7 7 5 4 2 4 4 2 1 2 3 4 3 3 4 4 5 7 7 6 5 5 6 8 7 6 7 8 6 6 8 12 15 17 17 17 17 18 18 18 18 18 20 20 21 23 24 24 23 23 22 22 21 21 22 25 25 24 22 21 20 19
3 5 6 6 4 2 3 4 3 2 2 3 4 3 3 4 4 4 5 6 6 6 5 5 8 9 8 9 10 8 7 10 14 16 16 17 18 19 19 19 19 19 20 21 21 22 23 25 24 24 23 22 22 22 21 23 25 25 23 21 20 18 18
1 1 4 5 5 3 2 2 3 2 2 2 3 3 4 5 5 5 5 5 6 8 6 5 7 11 12 11 11 11 10 12 16 17 17 16 17 18 18 19 21 21 22 22 22 22 23 24 24 23 23 23 22 22 22 24 25 24 23 21 18 16 16
Wind_Direction
191 182 178 160 159 181 193 137 170 223 176 133 127 246 283 76 182 261 255 257 292 318 306 321 12 20 18 26 68 110 128 133 132 140 150 154 156 156 157 156 152 150 149 145 137 140 151 160 157 149 151 163 162 147 146 148 147 151 153 153 152 151 149
256 194 131 144 200 150 132 190 205 189 93 92 105 154 359 37 231 275 309 256 294 337 295 312 3 19 12 14 42 99 118 124 127 135 146 153 154 153 152 148 147 149 146 140 137 141 153 162 160 153 154 160 156 150 152 152 151 154 154 152 150 149 147
286 21 89 29 322 86 149 185 177 119 126 228 76 138 187 52 238 282 312 301 271 211 235 297 323 235 133 26 54 106 122 129 132 139 149 154 151 149 151 150 152 151 145 140 137 143 160 168 160 151 153 158 155 153 154 154 154 153 151 150 147 146 146
301 12 68 202 278 340 83 132 84 43 148 164 163 149 162 176 199 266 311 327 278 228 219 244 271 232 171 144 137 138 144 147 148 150 153 156 154 153 154 152 152 148 142 141 143 150 161 162 151 150 154 154 151 150 152 153 151 148 147 147 146 145 145
340 321 300 211 185 159 123 149 196 281 110 132 167 91 97 140 150 184 267 302 271 253 211 209 260 239 179 168 161 160 161 152 150 153 152 154 155 152 152 149 147 142 137 139 145 151 154 150 148 149 148 147 148 149 151 153 150 147 147 148 147 146 145
328 256 252 200 171 167 162 170 186 183 149 125 149 299 314 96 119 162 171 263 267 261 219 234 254 214 181 178 163 155 151 143 143 149 148 150 151 149 149 146 140 135 132 135 142 145 145 147 147 144 146 149 148 148 151 154 152 150 151 152 150 147 147
253 264 266 189 179 181 156 154 162 149 133 127 154 230 261 111 78 138 127 254 266 263 267 266 256 184 164 169 154 140 139 142 143 147 146 145 148 148 144 139 131 130 131 134 139 140 143 146 144 144 148 148 145 148 152 153 153 154 155 155 152 150 151
298 300 317 331 177 146 109 70 62 128 150 148 158 185 182 139 152 143 102 272 268 285 322 325 348 119 119 126 138 138 144 147 145 151 151 142 143 144 140 134 128 129 133 136 140 143 145 144 141 144 146 144 145 150 152 153 155 156 157 156 154 153 153
344 338 348 350 343 36 81 279 321 145 144 110 113 130 80 102 187 156 132 232 259 283 350 31 68 96 108 121 137 143 147 148 147 152 151 140 137 139 139 135 132 135 139 143 144 145 145 143 144 147 146 145 148 150 152 157 158 158 158 157 156 155 154
163 247 277 279 286 338 333 339 346 338 125 120 134 135 82 113 197 146 148 216 264 298 54 73 85 110 121 133 143 146 145 144 145 147 148 144 138 140 142 139 139 143 147 148 147 146 146 146 149 150 148 149 150 149 153 158 158 158 159 158 157 156 157
181 189 215 225 157 108 326 352 0 343 131 124 114 102 122 179 165 184 222 212 272 311 105 122 136 140 141 148 148 150 147 143 144 145 146 143 138 142 143 139 143 148 150 151 149 147 148 150 151 151 151 151 152 151 153 156 158 159 160 161 160 159 160
202 187 226 258 106 121 240 328 353 349 108 107 94 108 186 149 116 285 258 194 218 276 202 165 178 162 158 166 160 156 153 150 149 146 145 142 141 145 143 143 149 151 151 151 148 148 149 149 150 152 153 153 155 155 155 158 160 163 164 165 163 162 162
327 5 339 351 83 101 73 49 7 9 53 85 99 141 180 134 134 246 247 176 203 247 206 183 189 174 169 168 154 149 152 150 145 143 144 145 148 153 152 154 156 153 153 153 149 149 149 149 151 151 152 154 156 157 159 161 163 166 168 169 169 167 165
11 3 358 25 54 71 47 21 354 32 71 91 103 128 176 141 179 250 206 183 228 243 202 187 178 158 152 140 134 148 161 156 146 145 149 150 156 162 162 162 162 158 157 153 150 151 152 152 154 152 153 158 159 160 163 164 165 168 170 172 174 172 168
10 352 18 28 11 84 84 27 358 33 60 70 77 86 121 95 335 323 85 156 263 269 200 158 139 134 135 139 150 163 167 160 151 152 157 159 164 170 170 168 164 159 155 152 153 156 157 157 157 156 159 163 163 164 166 167 169 171 173 175 177 177 174
337 330 39 37 16 53 64 15 349 2 20 46 91 122 161 181 206 44 49 333 273 266 155 136 138 145 150 158 164 166 168 170 168 167 167 168 172 174 173 169 163 159 158 158 160 162 161 160 161 163 165 165 164 166 169 172 174 175 178 179 179 180 179
265 297 41 51 41 49 23 302 284 292 302 276 268 281 205 193 161 129 160 248 243 182 152 152 156 164 171 174 171 170 171 174 178 179 175 175 179 178 174 170 166 166 165 165 166 166 166 167 168 170 170 167 168 171 172 175 176 176 180 182 182 182 182
210 298 16 38 54 78 241 242 207 211 233 228 252 262 244 234 197 149 200 241 194 164 173 175 175 179 181 177 174 174 172 173 179 185 183 182 182 180 176 171 169 170 169 169 171 172 172 172 172 173 172 170 171 173 175 177 177 177 181 183 185 185 185
147 7 33 53 144 227 246 272 259 217 209 188 199 243 254 237 216 200 248 256 184 179 190 187 175 173 156 152 170 176 177 181 179 179 185 186 183 182 179 174 174 174 171 170 173 175 173 172 171 170 169 170 172 175 177 179 178 179 182 184 185 186 187
134 88 70 130 239 259 277 306 302 217 174 138 140 284 280 240 196 189 220 230 190 178 188 159 135 119 102 121 168 181 182 186 184 184 188 186 183 184 182 177 176 177 175 173 172 172 171 171 171 170 170 173 176 176 179 180 178 178 182 183 185 186 187
136 124 133 254 295 297 280 288 272 198 152 135 137 191 279 252 197 166 164 176 176 164 151 135 124 109 94 97 230 209 189 189 194 195 191 188 189 189 185 183 181 178 177 174 170 169 170 171 173 172 173 174 175 174 175 176 175 176 180 184 187 188 188
114 103 87 347 10 255 240 242 255 241 155 150 137 117 293 266 213 165 153 163 172 158 139 139 133 112 90 285 245 210 190 192 195 195 200 197 190 177 171 175 176 175 172 167 166 168 168 170 173 173 172 172 169 168 169 172 172 176 184 190 191 190 191
117 111 120 168 192 239 243 230 249 270 151 137 105 60 314 268 208 165 153 160 175 166 150 152 141 113 114 263 254 201 184 190 188 182 191 178 142 126 147 164 167 171 167 162 166 169 166 168 172 172 171 169 166 164 167 172 175 181 189 195 194 194 195
153 127 128 199 217 247 256 238 250 250 134 109 83 50 279 262 209 175 161 163 178 171 149 152 153 146 182 241 262 203 181 184 183 179 178 156 136 145 165 167 163 168 168 165 168 169 167 169 172 171 169 167 166 166 169 173 179 186 193 198 198 199 201
148 138 139 253 251 234 239 246 242 185 112 86 92 206 239 235 201 198 176 165 173 163 152 165 188 189 200 254 273 198 166 169 176 157 127 109 111 125 138 144 151 161 167 169 170 170 171 172 170 169 169 167 167 169 170 175 183 190 196 199 201 203 203
129 138 131 274 267 240 221 240 242 143 123 151 212 223 230 185 183 212 197 171 170 166 170 179 176 157 327 345 346 157 152 156 138 93 81 78 83 100 121 142 158 160 163 171 171 169 171 171 169 170 170 167 168 170 172 178 186 192 195 199 200 200 200
115 73 72 88 240 244 221 56 9 96 150 205 216 214 325 182 179 189 199 185 175 177 186 177 107 74 46 46 77 116 122 112 97 95 104 117 128 138 146 156 163 158 157 172 176 170 170 171 171 171 169 166 168 170 174 182 188 192 196 197 194 192 194
123 100 146 203 216 237 260 116 193 222 225 209 184 147 55 293 178 170 189 205 197 187 180 153 106 78 63 75 96 108 107 106 108 117 133 143 144 146 151 156 161 159 159 170 176 171 171 173 173 172 169 165 165 170 177 184 188 191 194 192 188 189 193
160 169 208 227 226 243 267 228 215 248 290 258 163 144 136 208 191 172 178 202 202 174 146 128 109 90 93 107 113 112 112 116 121 127 133 137 142 147 150 155 163 164 164 168 168 165 169 172 172 173 170 166 166 172 180 187 189 190 190 188 188 191 195
212 194 215 250 289 298 305 296 242 259 320 324 177 151 154 224 198 170 168 185 178 150 137 129 114 120 136 124 110 110 110 111 119 124 127 138 149 151 149 155 164 164 161 162 159 157 164 171 173 173 171 171 174 178 182 186 189 189 188 188 191 194 195
159 199 291 301 310 289 298 318 304 307 9 355 256 192 225 233 175 148 140 133 129 130 135 132 126 135 142 127 116 117 116 117 123 127 132 144 153 155 156 158 158 154 152 154 156 157 161 167 169 170 172 177 181 182 182 186 189 189 189 193 196 198 200
142 222 258 279 287 268 260 254 249 273 357 351 354 41 134 109 101 99 96 109 121 125 126 128 130 136 141 136 133 131 122 125 129 131 139 148 151 153 157 157 154 153 154 156 158 158 157 160 167 174 179 184 187 186 186 188 189 190 194 198 200 202 205
9 256 250 284 327 313 301 282 235 236 241 269 44 56 77 91 93 89 81 85 101 115 124 131 130 131 141 142 136 133 131 132 131 132 139 146 147 148 152 156 158 159 158 156 156 156 158 166 175 182 185 188 191 192 192 190 190 193 198 201 204 207 207
316 248 221 179 135 263 282 278 253 221 192 136 92 76 81 96 109 113 101 86 80 95 117 133 132 133 145 148 138 136 137 135 134 136 139 141 142 144 149 154 158 157 154 154 157 161 169 178 183 187 189 192 196 198 197 194 193 196 199 202 206 209 207
220 231 213 175 135 168 241 243 225 191 147 119 110 112 117 122 133 132 120 111 103 98 110 133 140 140 146 146 139 131 128 136 141 144 146 144 142 146 151 154 153 150 152 160 167 172 178 184 188 191 194 197 199 201 202 200 197 198 201 204 207 209 208
222 234 205 171 131 121 220 216 193 176 153 124 116 123 135 137 139 132 125 125 127 124 121 133 145 146 145 145 144 136 130 140 146 148 150 150 149 153 158 159 155 156 163 173 181 184 186 188 191 195 199 201 201 203 204 201 198 199 203 206 207 207 209
119 192 172 154 138 145 190 174 128 132 154 128 113 120 141 147 146 139 128 123 130 136 134 133 147 151 146 141 142 141 139 147 153 153 150 150 152 157 161 163 166 170 177 184 187 188 190 192 195 198 201 203 203 205 204 201 199 200 205 207 207 207 208